San Luis Obispo, CA

8:50 PM PDT on May 28, 2017 (GMT -0700)
San Luis Obispo County-McChesney

Weather History for KSBP - April, 2014

Change the Weather History Date:

Sunday, April 13, 2014

  Actual Average Record
Temperature  
Mean Temperature 60 °F -  
Max Temperature 69 °F 69 °F 95 °F (2002)
Min Temperature 52 °F 45 °F 33 °F (1983)
Degree Days  
Heating Degree Days 4    
Growing Degree Days 10 (Base 50)    
Moisture  
Dew Point 49 °F    
Average Humidity 71    
Maximum Humidity 80    
Minimum Humidity 54    
Precipitation  
Precipitation 0.00 in - - ()
Sea Level Pressure  
Sea Level Pressure 30.01 in    
Wind  
Wind Speed 7 mph (NW)    
Max Wind Speed 17 mph    
Max Gust Speed 23 mph    
Visibility 10 miles    
Events      
Averages and records for this station are not official NWS values.
T = Trace of Precipitation, MM = Missing Value Source: NWS Daily Summary

Daily Weather History Graph

Daily Weather History Graph

Search for Another Location

Airport or City:

Trip Planner

Search our weather history database for the weather conditions in past years. The results will help you decide how hot, cold, wet, or windy it might be!

Date:

Astronomy

Apr. 13, 2014 Rise Set
Actual Time 6:32 AM PDT 7:33 PM PDT
Civil Twilight 6:06 AM PDT 7:59 PM PDT
Nautical Twilight 5:35 AM PDT 8:30 PM PDT
Astronomical Twilight 5:03 AM PDT 9:02 PM PDT
Moon 6:19 PM PDT (4/13) 5:30 AM PDT (4/13)
Length of Visible Light 13h 53m
Length of Day
13h 01m
Waxing Gibbous, 97% of the Moon is Illuminated
Apr 13
Waxing Gibbous
Apr 15
Full
Apr 22
Last Quarter
Apr 28
New
May 6
First Quarter

Hourly Weather History & Observations

Time (PDT) Temp. Dew Point Humidity Pressure Visibility Wind Dir Wind Speed Gust Speed Precip Events Conditions
12:56 AM 55.0 °F 46.9 °F 74% 29.99 in 10.0 mi NNW 3.5 mph - N/A   Overcast
1:56 AM 52.0 °F 45.0 °F 77% 29.99 in 10.0 mi ESE 6.9 mph - N/A   Overcast
2:56 AM 53.1 °F 46.0 °F 77% 29.99 in 10.0 mi Calm Calm - N/A   Overcast
3:56 AM 53.1 °F 46.0 °F 77% 29.99 in 10.0 mi SE 3.5 mph - N/A   Overcast
4:56 AM 54.0 °F 46.0 °F 75% 29.99 in 10.0 mi ESE 3.5 mph - N/A   Overcast
5:56 AM 54.0 °F 46.9 °F 77% 29.99 in 10.0 mi Calm Calm - N/A   Overcast
6:56 AM 55.0 °F 46.9 °F 74% 30.01 in 10.0 mi Calm Calm - N/A   Overcast
7:56 AM 55.0 °F 46.9 °F 74% 30.01 in 10.0 mi NW 5.8 mph - N/A   Overcast
8:56 AM 57.0 °F 48.0 °F 72% 30.01 in 10.0 mi NW 8.1 mph - N/A   Mostly Cloudy
9:56 AM 59.0 °F 48.9 °F 69% 30.02 in 10.0 mi NW 6.9 mph - N/A   Mostly Cloudy
10:56 AM 62.1 °F 50.0 °F 65% 30.02 in 10.0 mi WNW 5.8 mph - N/A   Scattered Clouds
11:56 AM 64.9 °F 51.1 °F 61% 30.01 in 10.0 mi WNW 4.6 mph - N/A   Clear
12:56 PM 69.1 °F 52.0 °F 54% 30.01 in 10.0 mi NW 12.7 mph - N/A   Clear
1:56 PM 66.9 °F 52.0 °F 59% 30.01 in 10.0 mi NW 17.3 mph 23.0 mph N/A   Clear
2:56 PM 66.0 °F 52.0 °F 60% 30.00 in 10.0 mi NW 17.3 mph - N/A   Clear
3:56 PM 64.0 °F 51.1 °F 63% 29.99 in 10.0 mi NW 16.1 mph - N/A   Clear
4:56 PM 63.0 °F 50.0 °F 63% 29.98 in 10.0 mi NW 16.1 mph - N/A   Clear
5:56 PM 61.0 °F 48.9 °F 64% 29.98 in 10.0 mi NW 15.0 mph - N/A   Clear
6:56 PM 57.9 °F 48.0 °F 70% 29.99 in 10.0 mi NW 16.1 mph - N/A   Clear
7:56 PM 55.0 °F 48.0 °F 77% 30.01 in 10.0 mi NW 9.2 mph - N/A   Clear
8:56 PM 55.0 °F 48.0 °F 77% 30.03 in 10.0 mi NW 10.4 mph - N/A   Clear
9:38 PM 55.4 °F 48.2 °F 77% 30.05 in 10.0 mi NW 9.2 mph - N/A   Mostly Cloudy
9:56 PM 55.0 °F 48.9 °F 80% 30.05 in 10.0 mi NW 10.4 mph - N/A   Scattered Clouds
10:37 PM 55.4 °F 48.2 °F 77% 30.06 in 10.0 mi NW 10.4 mph - N/A   Mostly Cloudy
10:56 PM 55.0 °F 48.9 °F 80% 30.06 in 10.0 mi NNW 8.1 mph - N/A   Overcast
11:47 PM 55.4 °F 48.2 °F 77% 30.05 in 10.0 mi NW 9.2 mph - N/A   Overcast
11:56 PM 55.0 °F 48.9 °F 80% 30.05 in 10.0 mi NW 8.1 mph - N/A   Overcast